Regional Weather Roundup
Issued by NWS

Home | Current Version | Previous Version | Text Only | Print | Product List | Glossary Off
Versions: 1 2 3 4 5 6 7 8 9 10 11 12 13 14 15 16 17 18 19 20 21 22 23 24 25 26 27 28 29 30 31 32 33 34 35 36 37 38 39 40 41 42 43 44 45 46 47 48 49 50

000
ASUS43 KDMX 280408
RWRIA

WEATHER ROUNDUP FOR IOWA
NATIONAL WEATHER SERVICE DES MOINES IA
1100 PM CDT FRI MAY 27 2016

NOTE: "FAIR" INDICATES FEW OR NO CLOUDS BELOW 12,000 FEET WITH NO
SIGNIFICANT WEATHER AND/OR OBSTRUCTIONS TO VISIBILITY.

* - THESE STATIONS ARE NOT NWS STATIONS...THUS NOT UNDER NWS
QUALITY CONTROL.  THEY ALSO DO NOT REPORT WEATHER SUCH
AS PRECIPITATION OR FOG.

IAZ001>003-012>014-020>022-031>034-043>046-280500-
   NORTHWEST IOWA

CITY           SKY/WX    TMP DP  RH WIND       PRES   REMARKS
CARROLL *      CLOUDY    68  64  88 S9        29.75R
CHEROKEE *     CLOUDY    70  59  68 SE6       29.73S
DENISON *      CLOUDY    68  64  88 SE10      29.73R
LE MARS *      MOCLDY    68  63  83 CALM      29.74R
ORANGE CITY *  CLEAR     70  59  68 NE3       29.74S
SHELDON *      CLEAR     66  61  82 NE5       29.73R
SIOUX CITY     TSTM      67  62  84 SW9       29.74R
SPENCER        MOCLDY    67  58  72 NE8       29.74R
STORM LAKE *   CLOUDY    68  61  77 S8        29.76R
$$

IAZ055>058-069>071-079>083-090>094-280500-
   SOUTHWEST IOWA

CITY           SKY/WX    TMP DP  RH WIND       PRES   REMARKS
ATLANTIC *     LGT RAIN  68  64  88 SE8       29.76S
AUDUBON *      LGT RAIN  68  63  83 S6        29.78R
CLARINDA *       N/A     68  66  94 MISG      29.77S
COUNCIL BLFS * CLOUDY    63  59  88 SW12G22   29.78R
CRESTON *      CLOUDY    66  64  94 SE7       29.78S
HARLAN  *      DRIZZLE   68  64  88 S5        29.79R
LAMONI         CLOUDY    65  64  97 E3        29.77R
RED OAK *      CLOUDY    68  66  94 S3        29.76S
SHENANDOAH *   CLOUDY    64  61  88 W12G22    29.78R
$$

IAZ047>049-059>061-072>074-084-280500-
   CENTRAL IOWA

CITY           SKY/WX    TMP DP  RH WIND       PRES   REMARKS
AMES           LGT RAIN  67  65  93 S5        29.77R
ANKENY *       CLOUDY    68  68 100 CALM      29.76F
BOONE *        CLOUDY    68  64  88 SE10      29.76R
CHARITON *     CLOUDY    66  63  88 W3        29.77S
DES MOINES     LGT RAIN  69  64  84 S3        29.76S
GRINNELL*      LGT RAIN  68  64  88 CALM      29.78R
KNOXVILLE *    CLOUDY    68  66  94 CALM      29.75S
MARSHALLTOWN   CLOUDY    68  64  87 CALM      29.76R
NEWTON *       CLOUDY    68  68 100 CALM      29.76F
PELLA *        PTCLDY    68  66  94 CALM      29.77S
PERRY *        RAIN      68  66  94 SE6       29.76S
$$

IAZ004>006-015-016-023>025-035-036-280500-
   NORTH CENTRAL IOWA

CITY           SKY/WX    TMP DP  RH WIND       PRES   REMARKS
ALGONA *       MOCLDY    68  63  83 SE7       29.76R
CLARION *      PTCLDY    68  64  88 E7        29.75S
ESTHERVILLE    CLOUDY    66  61  84 E8        29.75R
FORT DODGE *   CLOUDY    66  61  82 SE5       29.76R
MASON CITY     CLOUDY    64  62  93 CALM      29.77S
FOREST CITY *  CLEAR     63  63 100 CALM      29.76S
WEBSTER CITY * CLOUDY    66  64  94 SE8       29.75R
IOWA FALLS *   LGT RAIN  68  64  88 S6        29.79R
$$

IAZ007>011-017>019-026>030-037>042-050>054-066-280500-
   NORTHEAST IOWA

CITY           SKY/WX    TMP DP  RH WIND       PRES   REMARKS
CEDAR RAPIDS   RAIN      64  64 100 S5        29.77R FOG
CHARLES CITY * MOCLDY    66  66 100 N3        29.76R
CLINTON *      MOCLDY    72  68  87 SE7       29.78S
DECORAH *      CLEAR     66  66 100 E5        29.75F FOG
DUBUQUE        CLOUDY    71  67  87 S16       29.78S
MONTICELLO *   RAIN      64  63  94 E3        29.78R
OELWEIN *      CLOUDY    68  68 100 CALM      29.77S
WATERLOO       CLOUDY    68  64  87 CALM      29.75R
$$

IAZ064-065-067-068-078-280500-
   EAST CENTRAL IOWA

CITY           SKY/WX    TMP DP  RH WIND       PRES   REMARKS
DAVENPORT      CLOUDY    73  67  81 S13       29.77F
IOWA CITY      LGT RAIN  66  64  93 NW3       29.77F
MT. PLEASANT * HVY RAIN  68  68 100 NW8       29.77R
MUSCATINE *    CLOUDY    75  68  78 SE3       29.74F
QUAD CITIES    CLOUDY    74  67  78 SE10      29.76F
$$

IAZ062-063-075>077-085>089-095>099-280500-
   SOUTHEAST IOWA

CITY           SKY/WX    TMP DP  RH WIND       PRES   REMARKS
BURLINGTON     LGT RAIN  69  68  96 S13       29.77R
FAIRFIELD *      N/A    N/A N/A N/A MISG        N/A
FORT MADISON * CLOUDY    68  66  94 S7        29.79R
KEOKUK *       LGT RAIN  68  68 100 S5        29.77R
OSKALOOSA *    RAIN      66  64  94 S5        29.79S
OTTUMWA        LGT RAIN  67  66  97 CALM      29.77S FOG
WASHINGTON *   HVY RAIN  64 N/A N/A CALM      29.79F
$$

ABBREVIATIONS USED IN REMARKS
   TC - TEMPERATURES IN CELSIUS
  WCI - WIND CHILL INDEX
   HX - HEAT INDEX
  VSB - VISIBILITY
$$





USA.gov is the U.S. government's official web portal to all federal, state and local government web resources and services.